1st Responders/1st Detectors/Storm Spotters Weather Summary for Bell County, KY

Forecast Maps


Reg. NEXRAD Animation


National Fire Danger: Day 1 & 2 Map

Current NWS Watch/Warnings

SPC Convective Day 1 Outlook


Day 2 Outlook

(Click images to enlarge|Page will refresh every 5 minutes)
UK Ag. Weather Center Desktop Severe Weather Service[HERE]
Bell County, KY Hazardous Weather Outlook Webcast
(9 AM to 9 PM Mon-Fri)
[Fast]
[Dial-up]


UKAWC 1st Detectors/1st Responders Precision Weather Forecast For BELL County, Kentucky
(based on the NWS County Digital Forecast)

ISSUED AT 08:00 UTC ON SUNDAY SEP 15 2019
DAY SUNDAY
EDT 3HR 5A 6A 7A 8A 9A 10A 11A NOON 1P 2P 3P 4P 5P 6P 7P
MAX/MIN -- -- -- 54° -- -- -- -- -- -- -- -- -- -- 86°
TEMP 58° 56° 54° 56° 59° 65° 72° 76° 81° 83° 85° 86° 85° 81° 76°
SKY COVER 17% 15% 13% 10% 8% 5% 3% 3% 2% 2% 2% 2% 2% 2% 2%
Clouds
DEW PT 56° 56° 54° 56° 58° 61° 61° 59° 58° 56° 56° 56° 54° 58° 59°
RH 93% 99% 99% 100% 93% 84% 68% 56% 47% 39% 36% 35% 34% 44% 55%
POP 12HR -- -- -- 0% -- -- -- -- -- -- -- -- -- -- --
RAIN/SNOW (liq.equ) -- -- -- 0.00in -- -- -- -- -- 0.00in -- -- -- -- --
SNOWFALL -- -- -- 0in -- -- -- -- -- 0in -- -- -- -- --
WIND SPEED(MPH) 0 0 0 0 1 0 0 0 1 1 2 5 5 2 2
WIND Gust(MPH) 1 1 2 1 1 1 1 2 2 5 2 5 7 7 5
WIND DIR E E E SE SE S SE NE NE N N N N N N
DEW Mod Dew Mod Dew Mod Dew Mod Dew Mod Dew Mod Dew -- -- -- -- -- -- -- -- --
HeatIndex 58 56 54 56 59 65 72 76 81 83 84 85 84 81 76
WIND CHILL -- -- -- -- -- -- -- -- -- -- -- -- -- -- --
SPRAY COND
DRY COND
LIVESTOCK HEATSTRESS 58.03 56.02 54.03 56.00 58.99 64.45 69.68 71.84 74.53 74.88 75.78 76.28 75.49 74.16 71.74



DAY MONDAY TUESDAY WEDNESDAY THURSDAY FRIDAY SATURDAY
EDT 6HR 8P 9P 10P 11P MIDN 1A 2A 3A 4A 5A 6A 7A 8A 9A 10A 11A NOON 1P 2P 3P 4P 5P 8P 11P 2A 5A 8A 11A 2P 5P 8P 2A 8A 2P 8P 2A 8A 2P 8P 2A 8A 2P 8P 2A 8A 2P 8P
MAX/MIN -- -- -- -- -- -- -- -- -- -- -- -- 58° -- -- -- -- -- -- -- -- 88° -- -- -- -- 63° -- -- 85° -- -- 61° 85° -- -- 61° 85° -- -- 61° 85° -- -- 61° 85° --
TEMP 72° 67° 65° 63° 63° 63° 61° 61° 61° 61° 58° 58° 61° 65° 70° 76° 81° 85° 86° 88° 88° 88° 76° 70° 67° 65° 65° 76° 83° 83° 72° 65° 61° 83° 74° 65° 63° 83° 74° 65° 61° 83° 72° 63° 61° 83° 72°
SKY COVER 1% 1% 1% 1% 2% 2% 2% 2% 2% 2% 7% 11% 5% 5% 4% 4% 5% 5% 8% 8% 8% 8% 10% 8% 17% 25% 26% 24% 22% 27% 23% 20% 13% 14% 21% 24% 29% 33% 20% 27% 24% 26% 19% 28% 26% 25% 36%
Clouds
DEW PT 58° 58° 56° 56° 54° 54° 54° 54° 54° 54° 54° 54° 54° 58° 59° 61° 61° 59° 58° 58° 59° 61° 65° 63° 63° 61° 61° 65° 65° 63° 65° 61° 61° 63° 63° 61° 59° 63° 63° 59° 58° 61° 63° 58° 58° 59° 63°
RH 61% 70% 73% 75% 75% 75% 74% 75% 77% 77% 83% 86% 81% 77% 67% 57% 51% 42% 38% 37% 37% 41% 66% 81% 83% 86% 90% 70% 55% 51% 75% 90% 96% 51% 71% 90% 90% 52% 68% 84% 86% 47% 73% 84% 86% 44% 71%
POP 12HR 0% -- -- -- -- -- -- -- -- -- -- -- 0% -- -- -- -- -- -- -- -- -- 4% -- -- -- 4% -- -- -- 2% -- 2% -- 3% -- 2% -- 5% -- 4% -- 5% -- 5% -- 7%
RAIN/SNOW (liq.equ) 0.00in -- -- -- -- -- 0.00in -- -- -- -- -- 0.00in -- -- -- -- -- 0.00in -- -- -- 0.00in -- 0.00in -- 0.00in -- 0.00in -- 0.00in -- -- -- -- -- -- -- -- -- -- -- -- -- -- -- --
SNOWFALL 0in -- -- -- -- -- 0in -- -- -- -- -- 0in -- -- -- -- -- 0in -- -- -- 0in -- 0in -- 0in -- 0in -- 0in -- -- -- -- -- -- -- -- -- -- -- -- -- -- -- --
WIND SPEED(MPH) 1 0 0 0 0 1 1 1 1 1 0 1 0 0 0 0 0 1 1 1 2 2 1 0 0 0 1 1 5 5 2 1 1 1 1 1 2 2 1 1 1 1 0 1 1 1 0
WIND DIR N N E E SE SE S S S S S S SE E N NW N N N N N N N NE N N N NE N N NE E NE E NE SE S S E S S W N S S W N
HeatIndex 72 67 65 63 63 63 61 61 61 61 58 58 61 65 70 76 81 84 86 87 88 88 76 70 67 65 65 76 84 85 72 65 61 85 74 65 63 84 74 65 61 83 72 63 61 84 72
WIND CHILL -- -- -- -- -- -- -- -- -- -- -- -- -- -- -- -- -- -- -- -- -- -- -- -- -- -- -- -- -- -- -- -- -- -- -- -- -- -- -- -- -- -- -- -- -- -- --
SPRAY COND
DRY COND
LIVESTOCK HEATSTRESS 69.17 65.65 64.08 62.42 62.42 62.42 60.69 60.70 60.72 60.72 58.07 58.06 60.77 64.22 67.97 71.93 75.02 76.64 76.72 77.88 77.88 78.52 72.78 68.83 66.23 64.52 64.66 73.16 77.01 76.48 70.19 64.66 60.95 76.48 71.58 64.66 62.77 76.61 71.32 64.45 60.83 75.95 70.04 62.63 60.83 75.55 69.89

Click on individual weather variable above in left-hand column (ie., TEMP, RH, QPF 12HR) to view state forecast maps






NWS 48 Hr. Forecast Maps,

Regional Hourly Observations For BELL County, Kentucky
Issued at 400 AM EDT SUN SEP 15 2019
...EASTERN KENTUCKY...
  
CITY           SKY/WX    TMP DP  RH WIND       PRES   REMARKS
JACKSON          N/A     64  54  69 CALM      30.24S                  
LONDON           N/A     59  55  87 CALM      30.22F                  
SOMERSET*        N/A     59  50  72 CALM      30.22F                  
MONTICELLO*      N/A     54  54 100 VRB7      30.23F                  
WILLIAMSBURG*    N/A     59  57  94 CALM      30.22S                  
MIDDLESBORO*     N/A     59  59 100 CALM      30.24S                  
HARLAN APT*      N/A     58  57  97 E3        30.24F                  
PIKE CO APT*     N/A     64  54  70 CALM      30.24F                  
BIG SANDY APT*   N/A     58  57  96 CALM      30.24F                  
MOREHEAD APT*    N/A     55  54  94 SW5       30.25S                  
ASHLAND*       MOCLDY    56  55  97 CALM      30.23F                  


Current NOWCAST not available:
Nowcasts are not issued routinely during fair weather. Only when
precipitation or other significant weather is occuring in this county will these
forecasts be issued. Currently, there is no short term forecast in effect.


Fire Weather Forecast For BELL County, KY
Provided by the National Weather Service:

Issued at: Sun Sep 15 04:05:01 EDT 2019

557 AM EDT Sat Sep 14 2019

                      Today        Tonight      Sun          

Cloud Cover           PCldy        MClear       Clear        
Chance precip (%)     0            0            0            
Precip type           None         None         None         
Temp (24H TREND)      82-87 (-6)   52-63 (-4)   85-90        
Rh % (24H TREND)      38-51 (+13)  76-100 (+2)  27-32        
20ftwnd-AM(mph)       Lgt/Var                   Lgt/Var      
20ftwnd-PM(mph)       NW 3-7       Lgt/Var      NE 2-6       
Precip duration                                              
Precip begin                                                 
Precip end                                                   
Precip amount         0.00         0.00         0.00         
LAL                   1            1            1            
Haines Index (MID)    3                         5            
Mixing hgt(ft-AGL)    4800                      3400         
Transport wnd (mph)   NW  8                     NE  5        
Vent rate (kt-ft)     34368                     15062        
ADI Early             27 Fair      2 Very Poor  19 Gen Poor  
ADI Late              32 Fair      4 Very Poor  20 Gen Poor  
Max LVORI Early       9            5            6            
Max LVORI Late        3            7            2            

REMARKS...RANGES OF MIN T EXCEEDING 8 DEGREES & RANGES OF MAX RH        
EXCEEDING 10% INDICATE THE LIKELIHOOD OF THERMAL BELTS. ADI IS        
ATMOSPHERIC DISPERSION INDEX BY LAVDAS. DISPERSION INDEX IS        
MAGNITUDE OF VENT RATE DIVIDED BY 1000.


SPC's Fire Weather Web Tool (Excellent!), SPC's Fire Weather Outlooks, NWS Fire Weather WEB, Fire Danger Class Map,
Keetch-Byram Drought Index, ROMAN Web, Haines Index ,
WFAS's 10-hr Dead Fuel Moist., WFAS's 100-hr Dead Fuel Moist., Probablity of Ignition, Visual blackness Map, Palmer Drought Index, HPC's Rainfall Forecast Maps


Hazardous Weather Outlook For BELL County, Kentucky
334 PM EDT Sat Sep 14 2019

 DAY ONE  Tonight.

No hazardous weather is expected at this time.

 DAYS TWO THROUGH SEVEN  Sunday through Friday.

There is a slight chance of thunderstorms on Monday and Monday
evening.

 SPOTTER INFORMATION STATEMENT  

Spotter activation is not anticipated.

Latest BELL County, Kentucky Watches, Warnings and Advisories.
Additional Drought Info.: UKAWC Drought Page, Kentucky Drought Watch


7-Day Forecast For BELL County, KY

REST OF TONIGHT
Partly cloudy. Patchy valley fog late. Lows in the mid 50s in the valleys and in the lower 60s on the ridges. Light winds.

SUNDAY
Warm, sunny. Patchy valley fog early. Highs in the upper 80s. Light winds.

SUNDAY NIGHT
Clear. Patchy valley fog near dawn. Lows in the upper 50s in the valleys and in the mid 60s on the ridges. Light winds.

MONDAY
Sunny. Highs 85 to 90. Light winds.

MONDAY NIGHT
Mostly clear. Patchy valley fog late. Lows in the lower 60s. Light winds.

TUESDAY
Sunny. Highs in the mid 80s.

TUESDAY NIGHT
Mostly clear. Patchy valley fog. Lows around 60.

WEDNESDAY
Sunny. Highs 82 to 87.

WEDNESDAY NIGHT
Mostly clear. Patchy valley fog. Lows in the lower 60s.

THURSDAY
Mostly sunny. Highs 82 to 87.

THURSDAY NIGHT
Partly cloudy. Lows around 60.

FRIDAY
Mostly sunny. Highs 82 to 87.

FRIDAY NIGHT
Partly cloudy. Patchy valley fog. Lows in the upper 50s.

SATURDAY
Mostly sunny. Highs 83 to 88.

Ag Weather Center, Department of Biosystems & Agricultural Engineering, University of Kentucky